Calvi, France

3:38 AM CET on February 11, 2016 (GMT +0100)
Saint Catherine

Weather History for LFKC - October, 2013

Change the Weather History Date:

Thursday, October 31, 2013

  Actual Average Record
Temperature  
Mean Temperature 66 °F -  
Max Temperature 75 °F 61 °F 75 °F (2013)
Min Temperature 57 °F 49 °F 44 °F (1996)
Cooling Degree Days 1    
Growing Degree Days 16 (Base 50)    
Moisture  
Dew Point 58 °F    
Average Humidity 72    
Maximum Humidity 88    
Minimum Humidity 57    
Precipitation  
Precipitation 0.00 in - - ()
Sea Level Pressure  
Sea Level Pressure 30.07 in    
Wind  
Wind Speed 5 mph ()    
Max Wind Speed 12 mph    
Max Gust Speed -    
Visibility 6.6 miles    
Events      
Averages and records for this station are not official NWS values.
T = Trace of Precipitation, MM = Missing Value Source: Averaged Metar Reports

Daily Weather History Graph

Daily Weather History Graph

Search for Another Location

Airport or City:

Trip Planner

Search our weather history database for the weather conditions in past years. The results will help you decide how hot, cold, wet, or windy it might be!

Date:

Astronomy

Oct. 31, 2013 Rise Set
Actual Time 6:57 AM CET 5:19 PM CET
Civil Twilight 6:27 AM CET 5:48 PM CET
Nautical Twilight 5:54 AM CET 6:21 PM CET
Astronomical Twilight 5:21 AM CET 6:54 PM CET
Moon 3:25 AM CET (10/31) 3:31 PM CET (10/31)
Length of Visible Light 11h 20m
Length of Day
10h 21m
Waning Crescent, 11% of the Moon is Illuminated
Oct 31
Waning Crescent
Nov 3
New
Nov 10
First Quarter
Nov 17
Full
Nov 25
Last Quarter

Hourly Weather History & Observations

Time (CET) Temp. Dew Point Humidity Pressure Visibility Wind Dir Wind Speed Gust Speed Precip Events Conditions
7:00 AM 57.2 °F 53.6 °F 88% 30.04 in 6.2 mi SSW 4.6 mph - N/A   Mostly Cloudy
7:30 AM 57.2 °F 53.6 °F 88% 30.04 in 6.2 mi Variable 2.3 mph - N/A   Mostly Cloudy
8:00 AM 59.0 °F 53.6 °F 82% 30.04 in 6.2 mi SSE 6.9 mph - N/A   Mostly Cloudy
8:30 AM 60.8 °F 55.4 °F 82% 30.06 in 6.2 mi WSW 4.6 mph - N/A   Mostly Cloudy
9:00 AM 60.8 °F 57.2 °F 88% 30.06 in 6.2 mi Variable 3.5 mph - N/A   Mostly Cloudy
9:30 AM 62.6 °F 57.2 °F 82% 30.06 in 6.2 mi South 4.6 mph - N/A   Mostly Cloudy
10:00 AM 66.2 °F 60.8 °F 83% 30.06 in 6.2 mi Calm Calm - N/A   Mostly Cloudy
10:30 AM 71.6 °F 57.2 °F 60% 30.09 in 6.2 mi NNE 4.6 mph - N/A   Mostly Cloudy
11:00 AM 73.4 °F 60.8 °F 65% 30.09 in 6.2 mi NNW 6.9 mph - N/A   Mostly Cloudy
11:30 AM 73.4 °F 60.8 °F 65% 30.09 in 6.2 mi NNW 5.8 mph - N/A   Mostly Cloudy
12:00 PM 75.2 °F 59.0 °F 57% 30.09 in 6.2 mi North 3.5 mph - N/A   Mostly Cloudy
12:30 PM 73.4 °F 62.6 °F 69% 30.09 in 6.2 mi North 8.1 mph - N/A   Mostly Cloudy
1:00 PM 71.6 °F 60.8 °F 69% 30.06 in 6.2 mi NW 6.9 mph - N/A   Mostly Cloudy
1:30 PM 73.4 °F 60.8 °F 65% 30.06 in 6.2 mi North 10.4 mph - N/A   Mostly Cloudy
2:00 PM 73.4 °F 59.0 °F 61% 30.06 in 6.2 mi North 11.5 mph - N/A   Mostly Cloudy
2:30 PM 71.6 °F 59.0 °F 64% 30.06 in 6.2 mi NNW 6.9 mph - N/A   Mostly Cloudy
3:00 PM 71.6 °F 59.0 °F 64% 30.06 in 6.2 mi North 9.2 mph - N/A   Mostly Cloudy
3:30 PM 69.8 °F 59.0 °F 68% 30.09 in 6.2 mi North 10.4 mph - N/A   Mostly Cloudy
4:00 PM 69 °F 59 °F 63% 30.10 in 16 mi North 9.2 mph - -   Partly Cloudy
4:00 PM 69.8 °F 59.0 °F 68% 30.09 in 6.2 mi North 9.2 mph - N/A   Mostly Cloudy
4:30 PM 69.8 °F 59.0 °F 68% 30.09 in 6.2 mi North 4.6 mph - N/A   Mostly Cloudy
5:00 PM 68.0 °F 59.0 °F 73% 30.09 in 6.2 mi North 4.6 mph - N/A   Mostly Cloudy
5:30 PM 66.2 °F 59.0 °F 78% 30.09 in 6.2 mi SSE 3.5 mph - N/A   Mostly Cloudy